Location: Clyde
(45.1830°S, 169.3170°E)
Time: 18:12:56
(UTC+13:00)

Cosmos 1707 Rocket - Pass Details

Date: 24 January 2019
Orbit: 604 x 632 km, 82.5° (Epoch: 18 October)

Event Time Altitude Azimuth Distance (km) Brightness Sun altitude
Exits shadow 22:54:54 22° 41° (NE) 1,346 4.6 -13.7°
Maximum altitude 22:56:59 35° 89° (E) 1,009 4.3 -14.0°
Drops below altitude 10° 23:00:59 10° 154° (SSE) 1,992 6.4 -14.5°
Sets 23:03:21 0° 163° (SSE) 2,908 7.5 -14.7°
